Tracking 31027 objects as of 19-Jul-2025
HD Live streaming from Space Station
objects crossing your sky now

BREEZE-M DEB

Track BREEZE-M DEB now!
10-day predictions


NORAD ID: 39174
Int'l Code: 2013-026C
Perigee: 395.2 km
Apogee: 14,554.1 km
Inclination: 50.7 °
Period: 270.2 minutes
Semi major axis: 13845 km
RCS: Unknown
Launch date: June 3, 2013
Source: Commonwealth of Independent States (former USSR) (CIS)
Launch site: TYURATAM MISSILE AND SPACE COMPLEX (TTMTR)

Note: This is SATELLITE DEBRIS
Your satellite tracking list
STARLINK-30103
Track 1 satellite(s)




NASA's NSSDC Master Catalog

Two Line Element Set (TLE):
1 39174U 13026C   25199.23180604  .00000433  00000-0  30239-3 0  9996
2 39174  50.7467 279.0869 5113115 312.1627  14.4952  5.32884770233080
Source of the keplerian elements: AFSPC